Change the Weather History Date:

Tuesday, May 28, 2013

  Actual Average Record
Temperature  
Mean Temperature 78 °F -  
Max Temperature 87 °F 86 °F 91 °F (2014)
Min Temperature 68 °F 67 °F 62 °F (1998)
Cooling Degree Days 13    
Growing Degree Days 28 (Base 50)    
Moisture  
Dew Point 64 °F    
Average Humidity 63    
Maximum Humidity 78    
Minimum Humidity 27    
Precipitation  
Precipitation 0.00 in - - ()
Sea Level Pressure  
Sea Level Pressure 29.78 in    
Wind  
Wind Speed 7 mph ()    
Max Wind Speed 14 mph    
Max Gust Speed -    
Visibility 8.7 miles    
Events      
Averages and records for this station are not official NWS values.
T = Trace of Precipitation, MM = Missing Value Source: Averaged Metar Reports

Daily Weather History Graph

Daily Weather History Graph

Search for Another Location

Airport or City:

Trip Planner

Search our weather history database for the weather conditions in past years. The results will help you decide how hot, cold, wet, or windy it might be!

Date:

Astronomy

May. 28, 2013 Rise Set
Actual Time 6:19 AM MDT 7:45 PM MDT
Civil Twilight 5:54 AM MDT 8:10 PM MDT
Nautical Twilight 5:25 AM MDT 8:39 PM MDT
Astronomical Twilight 4:54 AM MDT 9:10 PM MDT
Moon 11:25 PM MDT (5/28) 10:00 AM MDT (5/28)
Length of Visible Light 14h 15m
Length of Day
13h 25m
Waning Gibbous, 82% of the Moon is Illuminated
May 28
Waning Gibbous
May 31
Last Quarter
Jun 8
New
Jun 16
First Quarter
Jun 23
Full

Hourly Weather History & Observations

Time (MDT) Temp. Heat Index Dew Point Humidity Pressure Visibility Wind Dir Wind Speed Gust Speed Precip Events Conditions
12:42 AM 69.8 °F - 62.6 °F 78% 29.81 in 8.0 mi East 8.1 mph - N/A   Clear
1:48 AM 69.8 °F - 62.6 °F 78% 29.79 in 8.0 mi East 6.9 mph - N/A   Clear
2:43 AM 69.8 °F - 62.6 °F 78% 29.78 in 8.0 mi East 6.9 mph - N/A   Clear
3:42 AM 69.8 °F - 60.8 °F 73% 29.78 in 8.0 mi NNE 8.1 mph - N/A   Clear
4:43 AM 69.8 °F - 60.8 °F 73% 29.78 in 6.0 mi NNE 8.1 mph - N/A   Scattered Clouds
5:48 AM 69.8 °F - 60.8 °F 73% 29.78 in 6.0 mi NNE 6.9 mph - N/A   Scattered Clouds
6:41 AM 69.8 °F - 60.8 °F 73% 29.79 in 4.0 mi North 6.9 mph - N/A   Scattered Clouds
7:49 AM 73.4 °F - 62.6 °F 69% 29.80 in 6.0 mi NE 8.1 mph - N/A   Scattered Clouds
8:40 AM 78.8 °F - 64.4 °F 61% 29.80 in 8.0 mi East 9.2 mph - N/A   Partly Cloudy
9:00 AM 83 °F - 73 °F 64% 29.81 in - East 6.7 mph - -  
9:45 AM 80.6 °F 81.8 °F 62.6 °F 54% 29.80 in 10.0 mi ESE 8.1 mph - N/A   Clear
10:46 AM 84.2 °F 85.6 °F 64.4 °F 51% 29.80 in 10.0 mi South 10.4 mph - N/A   Clear
11:44 AM 86.0 °F - 48.2 °F 27% 29.80 in 10.0 mi South 9.2 mph - N/A   Clear
12:00 PM 85 °F - 72 °F 58% 29.82 in - South 8.9 mph - -  
12:43 PM 86.0 °F 87.3 °F 64.4 °F 48% 29.78 in 12.0 mi South 11.5 mph - N/A   Clear
1:46 PM 87.8 °F 89.4 °F 64.4 °F 46% 29.77 in 12.0 mi South 13.8 mph - N/A   Clear
2:42 PM 84.2 °F 85.6 °F 64.4 °F 51% 29.76 in 12.0 mi South 11.5 mph - N/A   Clear
3:00 PM 86 °F - 73 °F 57% 29.76 in - SSW 11.2 mph - -  
3:44 PM 84.2 °F 86.6 °F 66.2 °F 55% 29.73 in 10.0 mi SSW 13.8 mph - N/A   Clear
4:40 PM 82.4 °F 83.9 °F 64.4 °F 54% 29.72 in 10.0 mi SSW 12.7 mph - N/A   Clear
5:41 PM 80.6 °F 82.3 °F 64.4 °F 58% 29.82 in 10.0 mi WSW 10.4 mph - N/A   Clear
6:00 PM 84 °F - 73 °F 62% 29.74 in - WSW 6.7 mph - -  
6:40 PM 78.8 °F - 64.4 °F 61% 29.72 in 10.0 mi SW 9.2 mph - N/A   Clear
7:40 PM 75.2 °F - 64.4 °F 69% 29.74 in 8.0 mi SSW 6.9 mph - N/A   Clear
8:45 PM 73.4 °F - 62.6 °F 69% 29.74 in 8.0 mi SSW 6.9 mph - N/A   Clear
9:00 PM 78 °F - 70 °F 69% 29.76 in - West 2.2 mph - -  
9:45 PM 69.8 °F - 62.6 °F 78% 29.76 in 8.0 mi SSE 5.8 mph - N/A   Clear
10:43 PM 69.8 °F - 60.8 °F 73% 29.78 in 8.0 mi SE 6.9 mph - N/A   Clear
11:50 PM 68.0 °F - 59.0 °F 73% 29.79 in 8.0 mi SE 5.8 mph - N/A   Clear